Regional Weather Roundup
Issued by NWS

Home | Current Version | Previous Version | Text Only | Print | Product List | Glossary Off
Versions: 1 2 3 4 5 6 7 8 9 10 11 12 13 14 15 16 17 18 19 20 21 22 23 24 25 26 27 28 29 30 31 32 33 34 35 36 37 38 39 40 41 42 43 44 45 46 47 48 49 50

000
ASUS43 KFSD 200210
RWRSD

WEATHER ROUNDUP FOR SOUTH DAKOTA
NATIONAL WEATHER SERVICE SIOUX FALLS SD
800 PM CST SUN FEB 19 2017

NOTE: "FAIR" INDICATES FEW OR NO CLOUDS BELOW 12,000 FEET WITH NO
SIGNIFICANT WEATHER AND/OR OBSTRUCTIONS TO VISIBILITY.


SDZ001>005-009-010-012>017-200300-
NORTHWEST AND NORTH CENTRAL SOUTH DAKOTA

CITY           SKY/WX    TMP DP  RH WIND       PRES   REMARKS
BUFFALO          N/A     54  36  50 N12       29.42R
FAITH            N/A     54  37  52 S15       29.49S
MOBRIDGE       CLOUDY    44  35  70 SE6       29.49R
$$

SDZ012>016-024>037-041>051-057-063-072>074-200300-
SOUTHWEST AND SOUTH CENTRAL SOUTH DAKOTA

CITY           SKY/WX    TMP DP  RH WIND       PRES   REMARKS
RAPID CTY ARPT CLOUDY    57  32  38 SW12      29.53R
PIERRE         MOCLDY    59  38  45 S10       29.53R
CUSTER         CLOUDY    48  31  51 W9G21     29.62F
ELLSWORTH AFB  CLOUDY    55  33  41 SW7       29.54R
PHILIP         MOCLDY    57  37  47 S12       29.52S
PINE RIDGE     CLOUDY    52  35  52 E3        29.57S
SPEARFISH      FAIR      55  32  41 SW12G23   29.54S
WINNER         FAIR      59  42  53 SE6       29.58F
$$

SDZ004>011-016>023-039-040-200300-
NORTHEAST SOUTH DAKOTA

CITY           SKY/WX    TMP DP  RH WIND       PRES   REMARKS
ABERDEEN       PTCLDY    51  46  83 S15       29.57S
WATERTOWN      CLOUDY    49  46  90 S15       29.64S
BROOKINGS      CLOUDY    54  48  80 S23       29.67F
SISSETON         N/A     48  46  93 S12       29.63F
$$

SDZ017-020-022-023-036>040-048>070-200300-
SOUTHEAST SOUTH DAKOTA

CITY           SKY/WX    TMP DP  RH WIND       PRES   REMARKS
SIOUX FALLS    CLOUDY    58  50  75 S17       29.70S
HURON          CLOUDY    57  50  77 S14       29.61R
CHAMBERLAIN    CLOUDY    59  46  61 S8        29.58F
MITCHELL       CLOUDY    58  51  78 SE15      29.63R
YANKTON        CLOUDY    61  48  63 S12       29.68R
$$

ABBREVIATIONS USED IN REMARKS
   TC - TEMPERATURE IN CELSIUS
  WCI - WIND CHILL INDEX
   HX - HEAT INDEX
  VSB - VISIBILITY





USA.gov is the U.S. government's official web portal to all federal, state and local government web resources and services.